Location: Callanans Corners
(42.5326°N, 73.8846°W)
Time: 16:58:36
(UTC+00:00)

COBE Rocket - Pass Details

Date: 06 October 2022
Orbit: 680 x 780 km, 97.1° (Epoch: 05 December)

Event Time Altitude Azimuth Distance (km) Brightness Sun altitude
Rises 23:41:45 0° 170° (S) 3,131 7.0 -14.4°
Reaches altitude 10° 23:44:02 10° 172° (S) 2,199 6.2 -14.8°
Maximum altitude 23:48:52 78° 259° (WSW) 727 4.0 -15.7°
Drops below altitude 10° 23:53:36 10° 346° (NNW) 2,160 6.6 -16.5°
Sets 23:55:51 0° 348° (NNW) 3,071 7.4 -16.9°
